Location: Eexterzandvoort
(53.0303°N, 6.7884°E)
Time: 09:49:54
(UTC+00:00)

Cosmos 2239 Rocket - Pass Details

Date: 19 May 2025
Orbit: 952 x 991 km, 82.9° (Epoch: 23 June)

Event Time Altitude Azimuth Distance (km) Brightness Sun altitude
Rises 21:49:34 0° 349° (NNW) 3,685 9.2 -13.9°
Reaches altitude 10° 21:52:06 10° 349° (N) 2,728 8.2 -14.0°
Maximum altitude 21:58:21 88° 265° (W) 972 4.5 -14.4°
Enters shadow 22:02:49 20° 173° (S) 2,058 5.6 -14.6°
